timestamp,wind_dir_avg,wind_spd_avg,wind_spd_max_dir,wind_spd_gust,battery_voltage,lat,long
2024-01-28 00:04:00+00:00,257.0,4.17,261.0,4.61,12.25,47.59359,-54.27349
2024-01-28 00:14:00+00:00,254.0,4.12,252.0,4.61,12.25,47.59359,-54.27349
2024-01-28 00:24:00+00:00,245.0,4.39,250.0,5.27,12.25,47.59359,-54.27349
2024-01-28 00:34:00+00:00,235.0,4.43,231.0,4.96,12.25,47.59359,-54.27349
2024-01-28 00:44:00+00:00,238.0,4.53,238.0,5.3,12.25,47.59359,-54.27349
2024-01-28 00:54:00+00:00,237.0,4.9,243.0,5.86,12.25,47.59359,-54.27349
2024-01-28 01:04:00+00:00,254.0,5.48,260.0,6.14,12.25,47.59359,-54.27349
2024-01-28 01:14:01+00:00,239.0,5.17,237.0,6.22,12.25,47.59359,-54.27349
2024-01-28 01:24:01+00:00,239.0,5.4,239.0,6.25,12.25,47.59359,-54.27349
2024-01-28 01:34:01+00:00,241.0,5.35,240.0,6.27,12.25,47.59359,-54.27349
2024-01-28 01:44:01+00:00,239.0,4.26,247.0,6.04,12.25,47.59359,-54.27349
2024-01-28 01:54:01+00:00,235.0,2.97,237.0,3.55,12.25,47.59359,-54.27349
2024-01-28 02:04:01+00:00,238.0,4.98,236.0,5.82,12.25,47.59359,-54.27349
2024-01-28 02:14:01+00:00,244.0,4.26,241.0,4.88,12.17,47.59359,-54.27349
2024-01-28 02:24:01+00:00,250.0,4.94,244.0,5.76,12.17,47.59359,-54.27349
2024-01-28 02:34:01+00:00,238.0,4.15,250.0,5.71,12.17,47.59359,-54.27349
2024-01-28 02:44:01+00:00,242.0,4.83,244.0,5.56,12.17,47.59359,-54.27349
2024-01-28 02:54:01+00:00,240.0,5.42,233.0,6.1,12.17,47.59359,-54.27349
2024-01-28 03:04:01+00:00,240.0,4.82,240.0,5.75,12.17,47.59359,-54.27349
2024-01-28 03:14:00+00:00,245.0,5.21,242.0,5.92,12.17,47.59359,-54.27349
2024-01-28 03:24:00+00:00,242.0,5.15,241.0,5.64,12.17,47.59359,-54.27349
2024-01-28 03:34:00+00:00,236.0,5.3,237.0,6.32,12.17,47.59359,-54.27349
2024-01-28 03:44:00+00:00,236.0,5.24,239.0,6.03,12.17,47.59359,-54.27349
2024-01-28 03:54:00+00:00,225.0,5.29,231.0,6.72,12.17,47.59359,-54.27349
2024-01-28 04:04:00+00:00,243.0,7.15,243.0,8.82,12.17,47.59359,-54.27349
2024-01-28 04:14:00+00:00,237.0,6.96,240.0,9.04,12.17,47.59359,-54.27349
2024-01-28 04:24:00+00:00,247.0,8.05,252.0,8.99,12.17,47.59359,-54.27349
2024-01-28 04:34:00+00:00,248.0,7.68,241.0,8.98,12.17,47.59359,-54.27349
2024-01-28 04:44:00+00:00,233.0,9.44,234.0,10.45,12.17,47.59359,-54.27349
2024-01-28 04:54:00+00:00,242.0,7.31,238.0,8.64,12.17,47.59359,-54.27349
2024-01-28 05:04:00+00:00,243.0,6.78,247.0,8.04,12.17,47.59359,-54.27349
2024-01-28 05:14:00+00:00,247.0,6.86,242.0,8.7,12.17,47.59359,-54.27349
2024-01-28 05:24:00+00:00,247.0,6.68,259.0,8.12,12.17,47.59359,-54.27349
2024-01-28 05:34:00+00:00,253.0,7.29,256.0,11.67,12.17,47.59359,-54.27349
2024-01-28 05:44:00+00:00,247.0,7.24,243.0,8.52,12.17,47.59359,-54.27349
2024-01-28 05:54:00+00:00,259.0,6.99,266.0,8.42,12.17,47.59359,-54.27349
2024-01-28 06:04:00+00:00,266.0,5.81,255.0,8.23,12.17,47.59359,-54.27349
2024-01-28 06:14:00+00:00,254.0,6.49,251.0,7.9,12.09,47.59359,-54.27349
2024-01-28 06:24:00+00:00,261.0,5.38,254.0,6.57,12.09,47.59359,-54.27349
2024-01-28 06:34:00+00:00,239.0,5.63,234.0,6.54,12.09,47.59359,-54.27349
2024-01-28 06:44:00+00:00,249.0,5.55,250.0,6.73,12.09,47.59359,-54.27349
2024-01-28 06:54:00+00:00,249.0,6.61,249.0,7.54,12.09,47.59359,-54.27349
2024-01-28 07:04:00+00:00,253.0,6.1,258.0,6.8,12.09,47.59359,-54.27349
2024-01-28 07:14:00+00:00,253.0,6.12,255.0,6.73,12.09,47.59359,-54.27349
2024-01-28 07:24:00+00:00,263.0,7.23,262.0,8.26,12.09,47.59359,-54.27349
2024-01-28 07:34:00+00:00,281.0,4.59,283.0,5.42,12.09,47.59359,-54.27349
2024-01-28 07:44:00+00:00,289.0,6.83,294.0,8.63,12.09,47.59359,-54.27349
2024-01-28 07:54:00+00:00,299.0,8.4,302.0,9.59,12.09,47.59359,-54.27349
2024-01-28 08:04:00+00:00,289.0,7.55,300.0,9.35,12.09,47.59359,-54.27349
2024-01-28 08:14:00+00:00,289.0,5.53,288.0,6.71,12.09,47.59359,-54.27349
2024-01-28 08:24:00+00:00,286.0,6.43,287.0,8.24,12.09,47.59359,-54.27349
2024-01-28 08:34:00+00:00,277.0,4.75,279.0,5.31,12.09,47.59359,-54.27349
2024-01-28 08:44:00+00:00,272.0,5.71,269.0,6.67,12.09,47.59359,-54.27349
2024-01-28 08:54:00+00:00,255.0,6.41,259.0,7.36,12.09,47.59359,-54.27349
2024-01-28 09:04:00+00:00,250.0,4.36,251.0,4.89,12.09,47.59359,-54.27349
2024-01-28 09:14:00+00:00,246.0,4.82,248.0,5.78,12.09,47.59359,-54.27349
2024-01-28 09:24:00+00:00,246.0,5.08,249.0,5.74,12.09,47.59359,-54.27349
2024-01-28 09:34:00+00:00,238.0,4.54,237.0,5.86,12.09,47.59359,-54.27349
2024-01-28 09:44:00+00:00,235.0,4.46,234.0,5.02,12.09,47.59359,-54.27349
2024-01-28 09:54:00+00:00,257.0,4.53,250.0,5.06,12.09,47.59359,-54.27349
2024-01-28 10:04:00+00:00,266.0,4.92,269.0,5.51,12.09,47.59359,-54.27349
2024-01-28 10:14:00+00:00,248.0,5.26,257.0,5.84,12.01,47.59359,-54.27349
2024-01-28 10:24:00+00:00,259.0,5.24,263.0,5.67,12.01,47.59359,-54.27349
2024-01-28 10:34:00+00:00,259.0,4.88,254.0,5.53,12.01,47.59359,-54.27349
2024-01-28 10:44:00+00:00,254.0,4.03,253.0,4.61,12.01,47.59359,-54.27349
2024-01-28 10:54:00+00:00,263.0,4.19,260.0,4.99,12.01,47.59359,-54.27349
2024-01-28 11:04:00+00:00,275.0,5.36,272.0,6.66,12.01,47.59359,-54.27349
2024-01-28 11:14:00+00:00,260.0,5.43,263.0,6.7,12.01,47.59359,-54.27349
2024-01-28 11:24:00+00:00,295.0,6.95,297.0,8.55,12.01,47.59359,-54.27349
2024-01-28 11:34:00+00:00,284.0,5.87,287.0,7.17,12.01,47.59359,-54.27349
2024-01-28 11:44:00+00:00,281.0,4.94,290.0,5.78,12.01,47.59359,-54.27349
2024-01-28 11:54:00+00:00,296.0,7.45,289.0,9.06,12.01,47.59359,-54.27349
2024-01-28 12:04:00+00:00,281.0,7.01,289.0,8.2,12.01,47.59359,-54.27349
2024-01-28 12:14:00+00:00,281.0,5.83,276.0,7.17,12.09,47.59359,-54.27349
2024-01-28 12:24:00+00:00,267.0,4.8,271.0,5.29,12.09,47.59359,-54.27349
2024-01-28 12:34:00+00:00,260.0,7.43,262.0,8.46,12.09,47.59359,-54.27349
2024-01-28 12:44:00+00:00,262.0,7.25,267.0,8.51,12.09,47.59359,-54.27349
2024-01-28 12:54:00+00:00,274.0,7.87,260.0,8.83,12.09,47.59359,-54.27349
2024-01-28 13:04:00+00:00,256.0,8.42,261.0,12.79,12.09,47.59359,-54.27349
2024-01-28 13:14:00+00:00,262.0,7.65,261.0,10.0,12.33,47.59359,-54.27349
2024-01-28 13:24:00+00:00,256.0,8.0,254.0,8.84,12.33,47.59359,-54.27349
2024-01-28 13:34:00+00:00,267.0,7.56,272.0,8.6,12.33,47.59359,-54.27349
2024-01-28 13:44:00+00:00,268.0,7.75,271.0,9.04,12.33,47.59359,-54.27349
2024-01-28 13:54:00+00:00,271.0,5.59,274.0,6.62,12.33,47.59359,-54.27349
2024-01-28 14:04:00+00:00,277.0,7.05,280.0,7.84,12.33,47.59359,-54.27349
2024-01-28 14:14:00+00:00,271.0,6.88,273.0,8.35,12.65,47.59359,-54.27349
2024-01-28 14:24:00+00:00,273.0,5.53,260.0,7.02,12.65,47.59359,-54.27349
2024-01-28 14:34:00+00:00,265.0,5.39,259.0,6.78,12.65,47.59359,-54.27349
2024-01-28 14:44:00+00:00,272.0,5.27,274.0,6.32,12.65,47.59359,-54.27349
2024-01-28 14:54:00+00:00,262.0,4.65,269.0,5.49,12.65,47.59359,-54.27349
2024-01-28 15:04:00+00:00,264.0,6.83,261.0,8.0,12.65,47.59359,-54.27349
2024-01-28 15:14:00+00:00,267.0,8.01,272.0,9.71,12.89,47.59359,-54.27349
2024-01-28 15:24:00+00:00,257.0,8.17,263.0,9.63,12.89,47.59359,-54.27349
2024-01-28 15:34:00+00:00,265.0,8.13,263.0,10.47,12.89,47.59359,-54.27349
2024-01-28 15:44:00+00:00,267.0,8.31,269.0,10.0,12.89,47.59359,-54.27349
2024-01-28 15:54:00+00:00,268.0,9.35,267.0,10.13,12.89,47.59359,-54.27349
2024-01-28 16:04:00+00:00,277.0,10.1,282.0,11.75,12.89,47.59359,-54.27349
2024-01-28 16:14:00+00:00,279.0,10.11,283.0,11.2,13.05,47.59359,-54.27349
2024-01-28 16:24:00+00:00,284.0,8.71,285.0,10.3,13.05,47.59359,-54.27349
2024-01-28 16:34:00+00:00,279.0,9.77,277.0,10.35,13.05,47.59359,-54.27349
2024-01-28 16:44:00+00:00,282.0,7.87,277.0,9.64,13.05,47.59359,-54.27349
2024-01-28 16:54:00+00:00,275.0,8.77,281.0,10.15,13.05,47.59359,-54.27349
2024-01-28 17:04:00+00:00,280.0,9.37,282.0,10.71,13.05,47.59359,-54.27349
2024-01-28 17:14:00+00:00,285.0,9.69,286.0,10.67,12.97,47.59359,-54.27349
2024-01-28 17:24:00+00:00,268.0,7.88,271.0,9.99,12.97,47.59359,-54.27349
2024-01-28 17:34:00+00:00,265.0,9.01,264.0,9.88,12.97,47.59359,-54.27349
2024-01-28 17:44:00+00:00,276.0,8.97,278.0,10.05,12.97,47.59359,-54.27349
2024-01-28 17:54:00+00:00,273.0,9.29,277.0,10.59,12.97,47.59359,-54.27349
2024-01-28 18:04:00+00:00,289.0,9.83,289.0,11.0,12.97,47.59359,-54.27349
2024-01-28 18:14:00+00:00,277.0,8.79,278.0,10.39,12.81,47.59359,-54.27349
2024-01-28 18:24:00+00:00,275.0,8.9,282.0,10.5,12.81,47.59359,-54.27349
2024-01-28 18:34:00+00:00,258.0,9.06,262.0,10.26,12.81,47.59359,-54.27349
2024-01-28 18:44:00+00:00,266.0,8.91,266.0,10.42,12.81,47.59359,-54.27349
2024-01-28 18:54:00+00:00,293.0,9.02,293.0,10.81,12.81,47.59359,-54.27349
2024-01-28 19:04:00+00:00,274.0,7.45,276.0,9.11,12.81,47.59359,-54.27349
2024-01-28 19:14:00+00:00,280.0,7.53,278.0,9.34,12.49,47.59359,-54.27349
2024-01-28 19:24:00+00:00,281.0,8.83,285.0,10.24,12.49,47.59359,-54.27349
2024-01-28 19:34:00+00:00,286.0,8.96,287.0,10.35,12.49,47.59359,-54.27349
2024-01-28 19:44:00+00:00,280.0,7.85,277.0,9.41,12.49,47.59359,-54.27349
2024-01-28 19:54:00+00:00,287.0,5.49,282.0,9.88,12.49,47.59359,-54.27349
2024-01-28 20:04:00+00:00,286.0,4.11,276.0,4.87,12.49,47.59359,-54.27349
2024-01-28 20:14:00+00:00,287.0,6.9,285.0,9.65,12.33,47.59359,-54.27349
2024-01-28 20:24:00+00:00,301.0,5.85,297.0,8.93,12.33,47.59359,-54.27349
2024-01-28 20:34:00+00:00,281.0,8.32,282.0,10.38,12.33,47.59359,-54.27349
2024-01-28 20:44:00+00:00,281.0,4.91,274.0,7.29,12.33,47.59359,-54.27349
2024-01-28 20:54:00+00:00,292.0,8.61,290.0,9.72,12.33,47.59359,-54.27349
2024-01-28 21:04:00+00:00,278.0,7.88,283.0,9.84,12.33,47.59359,-54.27349
2024-01-28 21:14:00+00:00,280.0,7.23,273.0,9.37,12.25,47.59359,-54.27349
2024-01-28 21:24:00+00:00,292.0,3.89,297.0,4.36,12.25,47.59359,-54.27349
2024-01-28 21:34:00+00:00,284.0,7.81,291.0,10.39,12.25,47.59359,-54.27349
2024-01-28 21:44:00+00:00,285.0,7.52,286.0,9.63,12.25,47.59359,-54.27349
2024-01-28 21:54:00+00:00,295.0,4.55,284.0,7.3,12.25,47.59359,-54.27349
2024-01-28 22:04:00+00:00,289.0,5.47,287.0,7.81,12.25,47.59359,-54.27349
2024-01-28 22:14:00+00:00,284.0,7.94,288.0,9.83,12.25,47.59359,-54.27349
2024-01-28 22:24:00+00:00,280.0,7.85,280.0,9.91,12.25,47.59359,-54.27349
2024-01-28 22:34:00+00:00,288.0,8.01,281.0,10.05,12.25,47.59359,-54.27349
2024-01-28 22:44:00+00:00,294.0,5.68,288.0,7.71,12.25,47.59359,-54.27349
2024-01-28 22:54:00+00:00,287.0,5.16,283.0,9.66,12.25,47.59359,-54.27349
2024-01-28 23:04:00+00:00,296.0,5.68,286.0,9.72,12.25,47.59359,-54.27349
2024-01-28 23:14:00+00:00,294.0,5.52,284.0,8.7,12.17,47.59359,-54.27349
2024-01-28 23:24:00+00:00,283.0,4.64,281.0,7.79,12.17,47.59359,-54.27349
2024-01-28 23:34:00+00:00,302.0,4.78,286.0,7.1,12.17,47.59359,-54.27349
2024-01-28 23:44:00+00:00,299.0,4.88,291.0,6.52,12.17,47.59359,-54.27349
2024-01-28 23:54:00+00:00,300.0,6.7,289.0,9.2,12.17,47.59359,-54.27349
